Location: North Evanston
(42.0634°N, 87.6976°W)
Time: 14:01:38
(UTC+00:00)

Injun/Solrad 3 - Pass Details

Date: 12 May 2026
Orbit: 867 x 989 km, 66.8° (Epoch: 7 June)

Event Time Altitude Azimuth Distance (km) Brightness Sun altitude
Rises 06:44:45 0° 331° (NNW) 3,679 11.6 -28.3°
Reaches altitude 10° 06:47:19 10° 333° (NNW) 2,739 10.9 -28.2°
Maximum altitude 06:53:45 71° 58° (ENE) 1,042 8.1 -27.8°
Enters shadow 06:55:48 45° 127° (SE) 1,320 8.5 -27.7°
Drops below altitude 10° 07:00:11 10° 142° (SE) 2,737 - -27.5°
Sets 07:02:45 0° 145° (SE) 3,676 - -27.3°
